DW4070 Weather Reports


time (UTC)temp
F
wind
direction
speed
knots
gust
knots
rain 1hr
in
rain 24hr
in
rain mn
in
humidity
%
barometer
mb
20260510031541 53 280 0.0 0.0 0.00 0.53 0.53 95 1012.8
20260510030041 53 280 0.0 0.0 0.00 0.53 0.53 95 1012.9
20260510024541 53 280 0.0 0.0 0.00 0.53 0.53 95 1013.0
20260510023040 53 280 0.0 0.0 0.00 0.53 0.53 95 1013.0
20260510021540 53 280 0.0 0.0 0.00 0.53 0.53 95 1012.9
20260510020039 53 280 0.0 0.0 0.00 0.53 0.53 94 1012.9
20260510014543 53 280 0.0 0.0 0.00 0.53 0.53 95 1012.8
20260510013039 53 280 0.0 0.0 0.00 0.53 0.53 95 1012.8
20260510011538 53 280 0.0 0.0 0.00 0.53 0.53 95 1012.5
20260510010039 53 280 0.0 0.0 0.01 0.53 0.53 94 1012.3
20260510004637 53 280 0.0 0.0 0.02 0.53 0.53 94 1012.2
20260510003036 54 280 0.0 0.0 0.04 0.53 0.53 94 1012.2
20260510001535 54 280 0.0 0.0 0.05 0.53 0.53 94 1012.2
20260510000038 54 280 0.0 0.0 0.07 0.52 0.52 93 1012.0
20260509234541 55 280 0.0 0.0 0.08 0.51 0.51 94 1012.1
20260509233036 55 280 0.0 0.0 0.09 0.49 0.49 94 1012.2
20260509231533 55 280 0.0 0.0 0.10 0.47 0.47 94 1012.3
20260509230032 54 280 0.0 0.0 0.11 0.45 0.45 94 1012.1
20260509224544 55 280 0.0 1.7 0.10 0.42 0.42 93 1012.3
20260509223030 55 280 0.0 0.0 0.08 0.39 0.39 94 1012.7
20260509221532 55 280 0.0 0.0 0.06 0.37 0.37 94 1012.7
20260509220029 56 280 0.0 0.0 0.05 0.34 0.34 94 1012.9
20260509214529 56 280 0.0 0.0 0.05 0.32 0.32 94 1012.6
20260509213028 56 280 0.0 0.0 0.06 0.31 0.31 93 1012.8
20260509211528 56 280 0.0 0.0 0.08 0.31 0.31 93 1013.1
20260509210028 56 280 0.0 0.0 0.06 0.28 0.28 93 1013.1
20260509204527 56 280 0.0 0.0 0.04 0.26 0.26 93 1013.1
20260509203033 56 280 0.0 0.9 0.04 0.24 0.24 93 1013.2
20260509201526 56 280 0.0 0.9 0.05 0.23 0.23 93 1013.4
20260509200027 56 280 0.0 0.0 0.09 0.23 0.23 93 1012.5
20260509194527 56 280 0.0 0.0 0.13 0.22 0.22 92 1012.5
20260509193024 56 280 0.0 0.0 0.19 0.20 0.20 91 1013.4
20260509191526 56 281 0.0 0.0 0.16 0.17 0.17 91 1013.2
20260509190022 57 280 0.0 0.0 0.13 0.14 0.14 89 1013.4
20260509184539 57 280 0.0 3.5 0.08 0.09 0.09 87 1013.5
20260509183021 59 280 0.9 2.6 0.00 0.01 0.01 81 1013.1
20260509181520 60 280 0.0 1.7 0.00 0.01 0.01 78 1012.5
20260509180022 61 280 0.0 2.6 0.00 0.01 0.01 74 1012.5
20260509174527 63 280 0.0 4.3 0.00 0.01 0.01 68 1012.4
20260509173019 64 280 1.7 4.3 0.00 0.01 0.01 64 1012.3
20260509171517 64 280 1.7 4.3 0.00 0.01 0.01 64 1012.5
20260509170024 64 262 0.0 4.3 0.00 0.01 0.01 67 1012.6
20260509164511 63 281 0.0 2.6 0.00 0.01 0.01 68 1012.9
20260509163008 62 281 0.9 4.3 0.00 0.01 0.01 69 1013.3
20260509161504 61 286 0.0 2.6 0.00 0.01 0.01 72 1013.8
20260509160001 61 21 0.0 1.7 0.00 0.01 0.01 71 1013.7
20260509154612 60 284 0.0 2.6 0.00 0.01 0.01 72 1013.9
20260509153108 60 284 0.0 3.5 0.00 0.01 0.01 73 1013.9
20260509151607 59 286 0.0 2.6 0.00 0.01 0.01 74 1014.0
20260509150053 59 286 0.0 0.9 0.00 0.01 0.01 78 1014.0
20260509144551 58 285 0.0 1.7 0.00 0.01 0.01 77 1014.2
20260509143057 57 286 0.0 2.6 0.00 0.01 0.01 81 1014.1
20260509141547 56 286 0.0 1.7 0.00 0.01 0.01 84 1014.3
20260509140041 55 286 0.9 3.5 0.00 0.01 0.01 84 1014.1
20260509134540 54 286 0.0 3.5 0.00 0.01 0.01 87 1014.0
20260509133051 53 286 0.0 1.7 0.00 0.01 0.01 90 1014.4
20260509131533 52 286 0.0 0.9 0.01 0.01 0.01 91 1014.4
20260509130031 52 286 0.0 0.0 0.01 0.01 0.01 92 1014.4
20260509124529 51 286 0.0 0.0 0.01 0.01 0.01 93 1014.6
20260509123032 51 286 0.0 0.9 0.01 0.01 0.01 93 1014.7
20260509121530 51 323 0.0 0.0 0.00 0.00 0.00 93 1015.0
20260509120025 51 320 0.0 0.0 0.00 0.00 0.00 93 1015.1
20260509114528 50 321 0.0 0.0 0.00 0.00 0.00 93 1014.9
20260509113022 50 315 0.0 0.0 0.00 0.00 0.00 94 1015.0
20260509111520 49 317 0.0 0.0 0.00 0.00 0.00 94 1014.8
20260509110018 49 287 0.0 0.0 0.00 0.00 0.00 94 1014.9
20260509104518 49 286 0.0 0.0 0.00 0.00 0.00 94 1014.7
20260509103016 49 166 0.0 0.0 0.00 0.00 0.00 94 1014.4
20260509101526 49 166 0.0 0.0 0.00 0.00 0.00 94 1014.3
20260509100015 49 166 0.0 0.0 0.00 0.00 0.00 94 1014.4
20260509094515 48 166 0.0 0.0 0.00 0.00 0.00 94 1014.4
20260509093012 48 166 0.0 0.0 0.00 0.00 0.00 93 1014.3
20260509091511 48 166 0.0 0.0 0.00 0.00 0.00 93 1014.4
20260509090012 48 166 0.0 0.0 0.00 0.00 0.00 93 1014.5
20260509084510 48 166 0.0 0.0 0.00 0.00 0.00 93 1014.5
20260509083009 48 166 0.0 0.0 0.00 0.00 0.00 93 1014.5
20260509081518 48 166 0.0 0.0 0.00 0.00 0.00 93 1014.6
20260509080008 48 166 0.0 0.0 0.00 0.01 0.00 93 1014.6
20260509074507 48 166 0.0 0.0 0.00 0.01 0.00 93 1014.5
20260509073015 48 166 0.0 0.0 0.00 0.01 0.00 92 1014.4
20260509071505 48 166 0.0 0.0 0.00 0.01 0.00 92 1014.4
20260509070009 48 166 0.0 0.0 0.00 0.01 0.00 92 1014.4
20260509064503 47 166 0.0 0.0 0.00 0.01 0.00 92 1014.5
20260509063112 47 166 0.0 0.0 0.00 0.01 0.00 91 1014.5
20260509061618 47 166 0.0 0.0 0.00 0.01 0.00 91 1014.7
20260509060112 47 166 0.0 0.0 0.00 0.01 0.00 90 1015.0
20260509054557 47 166 0.0 0.0 0.00 0.01 0.00 90 1014.9
20260509053056 47 166 0.0 0.0 0.00 0.01 0.00 90 1015.0
20260509051559 47 166 0.0 0.0 0.00 0.01 0.00 89 1015.0
20260509050053 47 166 0.0 0.0 0.00 0.01 0.00 88 1014.9
20260509044551 47 166 0.0 0.0 0.00 0.01 0.00 87 1014.9
20260509043051 48 166 0.0 0.0 0.00 0.01 0.00 86 1015.0
20260509041546 48 166 0.0 0.0 0.00 0.01 0.00 85 1015.0
20260509040044 48 166 0.0 0.0 0.00 0.01 0.00 85 1015.2
20260509034543 49 166 0.0 0.0 0.00 0.01 0.01 84 1015.2
20260509033042 49 166 0.0 0.0 0.00 0.01 0.01 84 1015.1